Temperature
21 18 18 19 19 19 20 20 19 19 20 19 18 18 17 18 18 17 17 17 17 17 18 17 17 17 17 17 17 17 16 16 16 16 16 16 15 15 15 15 15 15 15 15
18 18 20 20 20 20 20 19 19 20 20 19 18 18 17 17 17 17 17 17 17 17 17 17 17 17 17 17 17 16 16 16 16 16 16 15 15 15 15 15 15 15 15 14
19 20 21 21 21 21 20 19 19 19 20 19 18 17 17 17 17 17 18 18 18 17 17 17 17 17 17 17 17 16 16 16 16 16 15 15 15 15 15 15 15 14 14 14
19 21 21 21 21 21 19 20 21 20 19 17 18 16 16 16 16 16 17 17 17 17 17 17 17 17 17 16 16 16 16 16 16 15 15 15 15 15 15 15 14 14 14 14
20 21 21 21 21 21 20 21 21 20 18 17 17 16 15 16 16 16 16 17 17 17 17 17 17 17 17 16 16 16 16 16 16 15 15 15 15 15 15 14 14 14 14 14
20 21 21 21 21 22 21 20 19 16 16 16 17 16 16 15 16 16 16 17 17 17 17 17 17 17 17 16 16 16 16 16 15 15 15 15 15 15 14 14 14 14 14 14
19 20 21 21 21 21 19 17 16 16 15 16 17 16 16 16 17 17 17 17 17 17 17 17 17 16 16 16 16 16 16 15 15 15 15 15 15 14 14 14 14 14 14 14
18 18 20 21 20 19 19 17 16 16 16 15 16 16 16 17 17 18 18 18 17 17 17 17 17 16 16 16 16 16 15 15 15 15 15 14 14 14 14 14 14 14 14 14
18 18 20 21 21 20 19 17 17 16 16 16 15 16 17 17 17 17 17 17 17 17 17 17 16 16 16 16 16 15 15 15 15 15 14 14 14 14 14 14 14 13 13 13
19 18 19 20 21 20 20 18 15 16 16 15 16 16 16 17 16 16 16 16 17 17 17 17 16 16 16 16 16 15 15 15 15 15 14 14 14 14 14 13 13 13 13 13
18 18 18 19 19 19 19 18 16 14 15 15 15 16 17 17 17 16 16 17 17 17 16 16 16 16 16 16 15 15 15 15 15 14 14 14 14 13 13 13 13 13 13 13
17 15 16 17 18 19 19 18 16 15 15 14 14 15 17 17 17 17 16 16 17 17 16 16 16 16 16 15 15 15 15 14 14 14 14 14 13 13 13 13 13 13 13 13
16 15 15 16 17 18 19 18 17 15 14 14 14 16 17 16 16 16 16 16 16 16 16 16 15 15 15 15 15 15 14 14 14 14 13 13 13 13 13 13 12 12 12 12
16 14 15 16 16 17 17 18 18 16 14 14 15 16 16 16 15 15 15 15 15 15 15 15 15 15 14 14 14 14 14 14 13 13 13 13 13 13 12 12 12 12 12 12
15 15 15 15 16 17 17 18 18 17 15 15 16 15 15 15 15 15 15 15 14 14 14 14 14 14 14 14 14 14 13 13 13 13 13 12 12 12 12 12 12 12 12 11
14 15 15 15 17 16 17 17 17 17 16 16 16 15 15 15 15 14 14 14 14 14 14 14 14 14 13 13 13 13 13 13 13 13 12 12 12 12 12 12 11 11 11 11
13 14 14 14 15 16 16 16 16 16 16 16 15 15 14 14 14 14 14 14 14 14 14 14 13 13 13 13 13 13 13 12 12 12 12 12 11 11 11 11 11 11 11 10
13 13 12 13 14 15 15 16 16 15 15 15 15 14 14 14 14 14 14 14 14 14 13 13 13 13 13 13 12 12 12 12 12 11 11 11 11 11 11 10 10 10 10 10
13 13 12 12 13 14 15 15 15 15 14 14 14 14 14 14 14 13 14 14 14 14 13 13 13 13 12 12 12 12 11 11 11 11 11 10 10 10 10 10 10 10 9 9
12 12 12 12 13 13 14 15 16 15 14 14 14 13 13 13 11 12 13 13 13 13 13 13 12 12 12 11 11 11 11 11 10 10 10 10 10 10 10 9 9 9 9 9
13 12 12 12 12 12 13 15 15 14 13 14 14 14 13 12 12 13 13 13 13 13 12 12 12 12 11 11 11 11 10 10 10 10 10 10 10 9 9 9 9 8 8 8
12 11 11 11 12 12 13 14 13 13 14 14 14 14 13 13 13 13 13 12 12 12 12 11 11 11 11 10 10 10 10 10 10 9 9 9 9 9 8 8 8 8 8 8
11 11 11 11 12 12 13 13 14 14 14 14 13 14 13 13 12 12 12 12 11 11 11 11 11 11 10 10 10 10 10 9 9 9 9 9 8 8 8 8 7 7 7 7
11 11 10 10 11 12 13 13 13 14 14 13 13 13 13 12 12 12 11 11 11 11 10 10 10 10 10 9 9 9 9 9 9 9 8 8 8 8 8 7 7 7 6 6
10 10 10 10 10 11 12 13 13 13 13 13 13 12 12 12 12 11 11 11 10 10 10 10 10 10 9 9 9 9 9 9 8 8 8 8 7 7 7 7 6 6 6 6
9 9 9 9 10 10 11 12 12 12 12 12 12 11 11 11 11 11 10 10 10 10 9 9 9 9 9 9 8 8 8 8 8 8 7 7 7 7 6 6 6 6 6 6
Wind_Speed
0 3 4 7 8 6 4 3 3 4 4 5 5 5 5 6 6 7 6 6 7 6 5 5 5 6 5 4 4 4 4 3 3 2 2 2 1 1 1 2 3 4 3 4
2 3 8 6 5 4 3 3 3 2 3 4 4 4 4 5 8 9 9 8 8 6 5 5 5 5 5 4 4 4 4 3 3 3 2 2 2 1 1 1 2 3 3 3
7 6 4 4 3 3 3 4 4 3 0 2 2 3 3 3 4 5 7 7 8 10 10 8 6 5 5 5 5 5 4 4 3 3 3 2 2 2 2 1 1 1 2 2
4 5 3 3 3 4 3 5 4 4 2 2 2 2 6 5 4 6 7 7 7 8 8 7 7 6 6 5 4 4 4 4 3 4 4 4 3 2 2 1 1 0 1 2
4 4 2 4 6 5 5 4 2 2 2 1 1 2 6 2 5 8 9 9 8 8 9 9 8 8 7 6 5 4 4 3 3 3 4 4 2 2 1 1 1 1 1 0
4 3 4 5 3 3 2 4 5 5 4 1 4 4 5 5 8 7 8 8 9 9 8 8 7 6 5 5 4 4 4 3 3 4 4 4 4 3 3 2 2 0 0 1
4 4 2 3 2 2 5 6 3 4 3 4 3 2 6 7 6 8 9 9 8 8 8 6 6 6 6 6 6 5 5 4 3 4 4 4 4 4 4 4 4 2 1 1
2 5 4 3 5 5 4 8 6 4 4 4 3 3 5 4 2 4 6 7 7 7 7 7 7 7 7 7 6 5 5 4 4 4 4 3 3 3 3 3 3 3 3 3
4 5 4 3 3 6 4 4 7 6 2 1 3 3 4 1 1 3 5 6 7 8 8 8 6 6 7 6 6 7 6 4 4 4 3 3 3 3 3 3 3 2 2 2
5 3 4 3 2 1 5 6 5 4 3 2 3 3 4 5 5 5 5 6 7 7 7 7 6 6 5 5 5 5 5 5 4 3 3 3 2 2 2 2 3 3 2 2
3 3 3 1 4 5 2 2 4 4 4 4 3 5 5 9 9 9 8 7 7 7 7 7 6 5 4 4 3 4 3 3 3 3 2 1 1 1 1 2 2 3 2 2
2 4 3 5 5 4 5 5 6 4 3 4 3 6 5 6 7 9 8 7 6 7 6 6 5 4 4 4 4 4 3 3 3 3 3 2 2 1 1 1 1 1 2 2
3 4 1 5 5 3 0 2 4 5 4 4 4 5 3 3 4 6 7 7 6 6 6 5 4 4 3 3 3 3 3 3 3 3 3 2 2 2 1 1 1 1 1 1
4 3 5 7 6 3 3 3 3 5 4 4 6 5 2 2 4 4 6 6 6 6 6 5 4 3 3 3 3 2 1 2 3 3 3 2 1 1 2 2 1 1 1 1
4 2 3 5 5 3 5 6 5 5 7 7 6 6 5 5 6 6 6 7 7 6 5 5 4 3 2 2 2 2 2 2 2 3 3 2 2 1 1 1 1 0 1 1
3 2 1 3 3 3 4 5 5 5 5 5 5 4 4 4 4 5 6 7 7 5 5 4 4 3 2 2 2 2 2 2 3 3 2 1 1 1 1 1 1 1 0 0
1 3 1 3 5 4 3 4 3 2 2 5 5 5 3 3 5 7 7 7 6 5 4 4 4 4 3 3 4 3 2 2 3 3 2 2 2 1 1 1 1 1 0 1
5 4 3 1 2 3 5 2 2 3 2 2 3 3 5 5 6 6 6 7 6 5 4 4 3 3 2 3 3 3 3 3 3 2 2 1 1 1 1 1 1 0 0 1
6 6 3 2 2 5 5 3 1 2 1 1 3 3 4 3 4 1 2 4 5 6 5 4 4 3 2 2 3 3 3 3 3 2 1 1 2 1 1 1 0 0 0 0
4 4 4 3 3 5 5 5 3 3 2 2 3 5 4 4 2 3 2 1 2 3 4 4 3 3 2 2 3 4 3 3 3 2 2 1 1 2 2 1 1 0 0 0
1 2 3 3 4 5 5 5 2 2 5 3 3 4 5 4 5 4 2 2 2 2 3 3 4 3 2 3 4 4 3 3 3 2 2 1 1 1 2 1 1 1 1 1
4 3 3 3 3 6 4 2 2 4 2 1 3 4 4 3 2 3 3 3 2 2 3 3 3 3 2 3 4 3 2 2 2 2 2 1 0 1 0 1 1 0 1 0
3 5 4 5 5 3 0 2 1 1 1 1 2 2 4 3 2 3 3 4 3 3 2 2 4 3 2 2 4 4 3 2 2 2 1 1 0 0 1 1 1 1 1 1
3 0 2 1 2 2 1 1 2 1 1 1 2 3 4 3 3 3 3 3 2 2 2 2 3 3 2 2 2 3 2 2 3 2 1 1 1 0 0 1 1 1 2 2
4 0 1 2 2 3 3 2 1 1 2 3 3 2 3 4 2 3 3 3 3 2 1 2 3 4 3 2 2 1 2 3 3 2 1 0 0 0 1 1 2 2 3 4
2 3 4 5 4 3 5 4 1 1 1 2 2 2 1 2 2 3 3 2 2 2 2 2 3 3 3 3 2 1 2 3 3 2 1 0 0 0 0 1 2 3 3 3
Wind_Direction
75 96 215 221 203 198 197 199 232 237 204 156 176 203 215 197 176 176 181 179 181 184 190 176 161 151 139 132 127 125 123 137 128 116 111 106 101 84 72 75 92 101 103 109
34 249 233 219 205 192 198 207 248 269 195 169 185 231 228 196 191 186 185 186 184 175 168 183 176 155 152 156 146 140 139 145 148 143 146 155 152 142 143 92 84 108 118 123
197 234 214 189 208 196 205 203 215 215 94 83 124 307 267 249 213 191 188 186 182 179 178 184 182 170 157 160 165 165 166 155 154 140 116 93 68 47 34 18 32 40 117 124
226 243 198 192 216 186 234 230 206 189 136 256 165 243 266 232 218 203 201 193 188 185 180 180 178 171 173 181 174 168 165 154 152 141 133 136 142 160 215 215 199 360 123 121
238 213 202 215 222 193 212 222 196 175 159 307 296 172 274 221 214 219 209 199 194 184 176 178 181 178 178 175 171 168 158 153 158 154 151 153 155 183 183 171 115 59 14 121
241 230 195 206 207 182 154 55 37 52 78 286 248 188 263 228 214 209 207 199 194 186 181 185 186 174 171 169 164 156 156 164 165 165 164 165 170 173 148 162 153 186 299 305
307 295 256 154 117 14 83 83 36 1 7 253 264 184 251 252 211 195 193 192 189 180 178 178 178 174 172 171 169 162 159 172 181 177 180 185 186 176 174 178 178 184 200 239
203 270 251 190 172 185 173 142 157 195 219 275 323 241 266 272 200 181 175 175 171 170 174 178 180 178 178 179 174 168 169 177 187 192 196 192 184 179 189 187 175 184 201 215
186 244 267 227 182 154 156 174 171 147 189 246 281 289 315 26 125 157 151 149 164 174 177 179 175 172 175 176 178 176 175 183 191 193 190 192 195 181 184 186 182 188 204 203
171 222 262 266 84 183 160 153 103 124 167 242 279 257 233 214 200 176 165 171 179 176 176 176 174 177 180 182 182 176 176 183 189 182 184 187 201 198 187 173 181 188 203 193
137 173 285 311 196 208 155 138 130 139 157 166 232 263 231 202 190 177 178 177 176 169 169 170 170 171 167 160 157 164 173 173 174 177 168 142 168 184 165 170 197 200 201 190
114 131 236 258 264 204 170 174 149 156 214 181 189 263 284 200 180 166 167 167 161 158 157 154 154 147 146 150 153 157 161 163 173 162 142 141 140 135 148 186 230 212 196 204
109 110 63 335 337 357 185 182 152 141 135 168 186 260 322 118 128 146 150 149 144 142 131 123 124 130 138 147 147 146 157 166 158 142 143 139 132 133 158 196 245 222 191 198
107 118 170 203 227 242 252 246 183 142 170 208 217 232 277 161 147 148 143 141 135 129 127 123 130 139 139 136 137 139 134 148 142 135 137 143 166 178 184 191 204 208 175 174
95 141 221 245 253 244 238 243 222 197 194 197 218 210 229 207 174 160 147 137 127 124 120 125 135 137 135 131 143 147 144 133 131 134 141 172 181 159 156 166 197 197 162 175
78 141 305 299 299 309 280 263 232 217 196 186 180 220 226 186 137 128 140 143 142 147 152 149 137 128 138 161 165 152 144 161 137 126 144 159 137 115 125 170 162 138 126 169
137 131 94 282 310 351 285 257 213 211 209 182 204 216 172 142 145 158 163 158 159 162 158 155 161 168 171 174 171 154 156 138 133 130 120 112 108 90 81 80 87 126 171 132
156 134 141 239 7 244 248 291 121 111 61 108 147 152 151 166 175 166 158 157 157 162 163 170 174 180 181 172 158 149 130 119 123 128 130 132 123 106 81 72 62 100 168 170
163 148 144 148 224 273 296 322 345 162 278 8 135 135 140 124 98 73 168 162 170 173 171 175 176 173 165 161 155 132 130 125 117 127 146 167 159 146 122 109 113 27 56 42
94 118 135 150 192 236 257 297 307 108 249 291 154 147 145 113 123 246 241 171 160 159 162 155 140 118 124 158 138 129 141 145 160 177 186 187 167 161 170 191 202 168 99 29
66 75 150 176 213 255 282 309 51 145 242 248 182 161 162 178 201 210 170 143 152 154 148 136 126 136 166 163 137 135 147 181 199 181 155 139 176 188 179 167 163 131 115 54
179 170 185 164 197 250 297 70 147 229 272 187 173 168 163 160 140 139 140 138 127 126 130 133 134 148 164 155 143 144 182 210 164 135 137 161 188 243 161 153 183 182 166 208
189 191 188 190 212 255 10 168 209 122 104 158 169 169 142 136 143 145 149 150 144 135 143 144 140 140 148 159 154 166 203 167 135 125 135 166 156 286 195 189 209 240 228 221
285 130 130 246 281 315 342 41 31 55 121 127 131 137 131 128 139 149 154 157 154 143 141 133 129 138 162 174 165 173 164 140 135 141 157 161 129 35 350 233 216 226 231 232
245 212 133 230 290 345 327 312 316 10 54 74 75 99 144 138 154 168 168 171 173 163 159 149 154 166 184 173 161 154 139 128 121 119 123 120 107 207 333 310 264 243 239 232
217 189 188 227 236 234 268 285 292 91 84 115 94 65 61 135 169 175 182 187 181 167 160 164 167 171 181 172 171 169 153 142 135 127 129 155 82 296 283 325 331 319 304 291
Height
1500 1506 1510 1507 1506 1506 1508 1511 1514 1511 1505 1509 1514 1515 1513 1512 1513 1514 1515 1515 1517 1518 1520 1522 1522 1524 1525 1525 1526 1526 1526 1527 1527 1527 1528 1528 1528 1529 1529 1529 1529 1529 1529 1529
1505 1507 1501 1499 1501 1503 1506 1512 1513 1509 1504 1508 1513 1514 1511 1510 1510 1511 1512 1514 1515 1517 1519 1520 1521 1522 1523 1524 1525 1525 1525 1526 1526 1526 1527 1527 1528 1528 1528 1528 1528 1528 1528 1528
1506 1501 1496 1498 1501 1504 1506 1509 1510 1510 1506 1507 1513 1518 1513 1510 1509 1510 1510 1511 1513 1514 1516 1518 1520 1521 1522 1523 1523 1524 1525 1525 1525 1526 1526 1526 1527 1527 1527 1527 1527 1527 1527 1527
1501 1496 1496 1498 1500 1501 1508 1501 1502 1505 1512 1519 1515 1530 1517 1511 1510 1509 1509 1510 1511 1513 1514 1516 1518 1519 1520 1521 1522 1523 1524 1524 1525 1525 1525 1525 1525 1525 1525 1525 1525 1525 1526 1526
1499 1495 1496 1499 1498 1497 1500 1497 1499 1503 1510 1518 1518 1526 1521 1511 1511 1508 1506 1507 1509 1510 1512 1514 1516 1517 1518 1520 1521 1522 1523 1523 1524 1524 1524 1524 1524 1524 1524 1524 1524 1524 1524 1524
1495 1492 1492 1493 1492 1493 1494 1499 1504 1510 1517 1528 1520 1524 1523 1512 1506 1504 1503 1504 1506 1508 1510 1512 1514 1516 1517 1518 1519 1520 1521 1521 1522 1522 1522 1522 1522 1522 1522 1522 1522 1523 1523 1523
1500 1494 1490 1490 1494 1495 1498 1513 1528 1530 1535 1531 1516 1520 1517 1502 1497 1498 1500 1501 1503 1506 1508 1510 1512 1514 1515 1516 1517 1518 1519 1520 1520 1521 1521 1521 1521 1521 1521 1521 1521 1521 1522 1521
1508 1507 1493 1489 1493 1498 1500 1510 1528 1535 1537 1530 1518 1520 1510 1497 1495 1496 1498 1499 1502 1504 1506 1508 1510 1511 1513 1514 1516 1517 1517 1518 1519 1519 1519 1519 1520 1519 1519 1520 1520 1520 1520 1520
1506 1505 1490 1487 1487 1491 1500 1507 1508 1521 1525 1530 1525 1515 1505 1497 1497 1497 1498 1499 1501 1503 1505 1507 1509 1510 1511 1512 1513 1514 1515 1516 1517 1517 1517 1518 1518 1518 1518 1518 1518 1518 1518 1519
1495 1501 1492 1488 1487 1489 1492 1498 1511 1520 1529 1535 1526 1518 1514 1503 1499 1497 1498 1499 1500 1502 1504 1505 1507 1509 1510 1511 1512 1513 1514 1515 1515 1515 1516 1516 1516 1517 1517 1517 1517 1517 1517 1517
1491 1501 1498 1493 1493 1495 1495 1499 1506 1517 1521 1531 1533 1522 1497 1496 1494 1495 1496 1497 1498 1500 1502 1504 1506 1507 1508 1510 1511 1511 1512 1513 1513 1514 1514 1514 1515 1515 1515 1515 1515 1515 1515 1515
1493 1502 1506 1498 1488 1486 1490 1494 1503 1517 1519 1521 1526 1518 1491 1490 1490 1492 1494 1496 1498 1499 1501 1503 1504 1506 1507 1508 1509 1509 1510 1510 1511 1512 1512 1513 1513 1513 1513 1513 1513 1513 1513 1513
1493 1503 1512 1508 1502 1493 1491 1492 1496 1504 1514 1520 1523 1514 1492 1491 1492 1493 1494 1496 1497 1499 1501 1502 1503 1504 1505 1506 1507 1508 1508 1509 1509 1510 1510 1510 1510 1510 1510 1510 1511 1511 1510 1510
1490 1501 1508 1511 1505 1497 1495 1492 1493 1501 1513 1515 1511 1505 1497 1494 1493 1494 1494 1495 1497 1498 1499 1501 1502 1503 1504 1505 1505 1506 1507 1507 1508 1508 1508 1508 1508 1508 1508 1508 1508 1508 1508 1507
1491 1501 1500 1498 1494 1493 1492 1491 1490 1495 1499 1505 1501 1500 1496 1493 1492 1493 1494 1495 1496 1498 1499 1500 1501 1502 1502 1503 1504 1504 1505 1505 1506 1506 1506 1506 1506 1506 1506 1506 1506 1505 1505 1505
1493 1499 1499 1498 1492 1491 1491 1488 1487 1489 1490 1493 1495 1496 1491 1491 1491 1492 1494 1495 1496 1497 1498 1499 1499 1500 1501 1502 1502 1503 1503 1503 1504 1504 1504 1504 1504 1504 1503 1503 1503 1502 1502 1502
1496 1499 1504 1506 1497 1493 1497 1489 1487 1488 1486 1488 1493 1493 1490 1491 1491 1491 1492 1493 1494 1495 1496 1497 1498 1498 1499 1500 1500 1500 1501 1501 1502 1502 1502 1502 1502 1501 1501 1500 1500 1500 1499 1499
1495 1499 1505 1507 1503 1506 1495 1484 1484 1486 1487 1486 1487 1488 1488 1489 1489 1490 1490 1491 1492 1493 1494 1495 1496 1496 1497 1497 1498 1498 1499 1499 1499 1499 1499 1499 1499 1499 1498 1498 1497 1497 1496 1496
1488 1495 1504 1509 1508 1502 1491 1485 1485 1487 1489 1486 1486 1486 1487 1488 1489 1490 1490 1491 1491 1491 1492 1492 1493 1494 1494 1495 1495 1496 1496 1497 1497 1497 1497 1497 1497 1496 1495 1495 1494 1494 1493 1493
1488 1492 1501 1506 1507 1506 1494 1484 1481 1484 1491 1486 1485 1485 1487 1487 1492 1491 1489 1489 1489 1490 1490 1490 1491 1491 1492 1492 1493 1493 1493 1494 1494 1494 1494 1494 1494 1493 1493 1492 1492 1491 1491 1490
1494 1497 1501 1504 1505 1498 1488 1483 1482 1493 1492 1484 1483 1483 1484 1485 1487 1487 1487 1487 1487 1487 1488 1488 1489 1489 1489 1490 1490 1490 1491 1491 1492 1492 1492 1492 1491 1491 1490 1490 1489 1489 1488 1488
1495 1499 1502 1503 1505 1500 1484 1483 1487 1487 1483 1482 1482 1482 1483 1483 1484 1484 1485 1485 1486 1486 1486 1486 1486 1487 1487 1488 1488 1488 1488 1489 1489 1489 1489 1489 1489 1488 1488 1487 1486 1486 1485 1485
1492 1492 1493 1495 1495 1487 1483 1483 1483 1483 1482 1481 1481 1481 1481 1481 1482 1482 1483 1483 1483 1484 1484 1484 1484 1484 1485 1486 1486 1486 1486 1486 1486 1486 1486 1486 1486 1485 1485 1484 1483 1483 1482 1482
1489 1487 1489 1491 1487 1485 1483 1482 1482 1482 1481 1481 1480 1480 1480 1480 1480 1481 1481 1481 1481 1482 1482 1482 1481 1482 1483 1483 1484 1484 1484 1484 1484 1484 1483 1483 1483 1482 1482 1481 1481 1480 1479 1479
1488 1487 1489 1489 1487 1484 1483 1482 1482 1481 1480 1480 1479 1479 1479 1479 1479 1479 1479 1479 1479 1479 1480 1480 1480 1480 1480 1481 1481 1481 1481 1481 1481 1481 1481 1480 1480 1479 1479 1478 1478 1477 1477 1477
1485 1486 1488 1487 1484 1484 1482 1481 1480 1480 1479 1479 1478 1478 1478 1478 1477 1478 1478 1478 1478 1478 1478 1478 1478 1478 1478 1478 1479 1479 1479 1478 1478 1478 1478 1477 1477 1476 1476 1475 1474 1474 1474 1474